Skip Page Navigation
NASA JPL Caltech
NASA Logo - Jet Propulsion Laboratory + View the NASA Portal
+ Center for Near-Earth Object Studies
JPL Home Earth Solar System Stars & Galaxies Technology
JPL Solar System Dynamics
BODIES ORBITS EPHEMERIDES TOOLS PHYSICAL DATA DISCOVERY FAQ SITE MAP
JPL Small-Body Database Browser
Search: [ help ]  
434181 (2002 VY104)
Classification: Inner Main-belt Asteroid          SPK-ID: 2434181
Ephemeris | Orbit Diagram | Orbital Elements | Mission Design | Physical Parameters | Discovery Circumstances ]

[ show orbit diagram ]
Orbital Elements at Epoch 2459000.5 (2020-May-31.0) TDB
Reference: JPL 18 (heliocentric ecliptic J2000)
 Element Value Uncertainty (1-sigma)   Units 
e .0946923968923363 1.1659e-07  
a 1.981149409023363 1.5913e-08 au
q 1.793549622881106 2.2242e-07 au
i 18.55944151484674 1.0361e-05 deg
node 247.4697809359313 1.79e-05 deg
peri 193.9813694786014 4.1847e-05 deg
M 83.66048262517653 3.1968e-05 deg
tp 2458763.803336788089
(2019-Oct-07.30333679)
9.0978e-05 TDB
period 1018.531044556095
2.79
1.2272e-05
3.36e-08
d
yr
n .3534501986209937 4.2586e-09 deg/d
Q 2.168749195165621 1.742e-08 au
  Orbit Determination Parameters
   # obs. used (total)      166  
   data-arc span      6375 days (17.45 yr)  
   first obs. used      2002-11-12  
   last obs. used      2020-04-26  
   planetary ephem.      DE431  
   SB-pert. ephem.      SB431-N16  
   condition code      0  
   norm. resid. RMS      .56749  
   source      ORB  
   producer      Otto Matic  
   solution date      2020-May-22 03:24:29  

Additional Information
 Earth MOID = .811096 au 
 Jupiter MOID = 3.1033 au 
 T_jup = 3.791 
[ show covariance matrix ]

Ephemeris | Orbit Diagram | Orbital Elements | Mission Design | Physical Parameters | Discovery Circumstances ]

Physical Parameter Table
Parameter Symbol Value Units Sigma Reference Notes
absolute magnitude H 17.5   n/a MPO503561  

434181 (2002 VY104)          Discovered 2002-Nov-12 by LINEAR at Socorro
Reference: Last Updated: 2015-06-04
Ephemeris | Orbit Diagram | Orbital Elements | Mission Design | Physical Parameters | Discovery Circumstances ]
ABOUT SSD CREDITS/AWARDS PRIVACY/COPYRIGHT GLOSSARY LINKS
FirstGov 2020-Oct-21 20:35 UT
(server date/time)  
NASA Home Page
Site Manager:   Ryan S. Park
Webmaster  Alan B. Chamberlin